This is the latest recevied weather packets stored in our database for station/object KE6YLF. If no packets are shown the sender has not sent any weather packets the latest 10 day(s).
| Time | Temp. | Humidity | Pressure | Rain* | Wind** | Luminosity | Snow |
|---|---|---|---|---|---|---|---|
| 1788122623 | 38.89° C | 33% | 1075.9 hPa | 0 mm | - | - | - |
| 1788122318 | 38.33° C | 34% | 1076 hPa | 0 mm | - | - | - |
| 1788122015 | 38.89° C | 34% | 1076 hPa | 0 mm | - | - | - |
| 1788121713 | 39.44° C | 33% | 1075.9 hPa | 0 mm | - | - | - |
| 1788121409 | 38.33° C | 34% | 1076.2 hPa | 0 mm | - | - | - |
| 1788121105 | 38.89° C | 34% | 1076 hPa | 0 mm | - | - | - |
| 1788120799 | 38.33° C | 34% | 1076.4 hPa | 0 mm | - | - | - |
| 1788120494 | 38.33° C | 34% | 1076.2 hPa | 0 mm | - | - | - |
| 1788120193 | 38.33° C | 34% | 1076.3 hPa | 0 mm | - | - | - |
| 1788119889 | 38.89° C | 34% | 1076.5 hPa | 0 mm | - | - | - |
| 1788119589 | 38.33° C | 34% | 1076.2 hPa | 0 mm | - | - | - |
| 1788119287 | 37.78° C | 35% | 1076.6 hPa | 0 mm | - | - | - |
| 1788118980 | 37.78° C | 35% | 1076.6 hPa | 0 mm | - | - | - |
| 1788118676 | 37.78° C | 35% | 1076.5 hPa | 0 mm | - | - | - |
| 1788118369 | 38.33° C | 34% | 1076.7 hPa | 0 mm | - | - | - |
| 1788118065 | 37.78° C | 36% | 1076.9 hPa | 0 mm | - | - | - |
| 1788117760 | 37.22° C | 35% | 1076.7 hPa | 0 mm | - | - | - |
| 1788117457 | 37.78° C | 36% | 1077 hPa | 0 mm | - | - | - |
| 1788117156 | 37.22° C | 36% | 1076.9 hPa | 0 mm | - | - | - |
| 1788116851 | 36.67° C | 37% | 1077.2 hPa | 0 mm | - | - | - |
| 1788116546 | 38.33° C | 35% | 1077.3 hPa | 0 mm | - | - | - |
| 1788116244 | 37.78° C | 37% | 1077.3 hPa | 0 mm | - | - | - |
| 1788115941 | 37.22° C | 37% | 1077.3 hPa | 0 mm | - | - | - |
| 1788115640 | 36.67° C | 37% | 1077.5 hPa | 0 mm | - | - | - |
| 1788115339 | 37.22° C | 37% | 1077.4 hPa | 0 mm | - | - | - |
* Rain latest hour (hover to see other rain measurements)
** Current wind speed in m/s (hover to see current wind gust speed)